Location: Stone Trail Observatory
(44.2408°N, 105.6081°W)
Time: 09:13:23
(UTC-06:00)

Iridium 6 - Visible Passes

Search period start: 27 August 2016 00:00
Search period end: 06 September 2016 00:00
Orbit: 776 x 779 km, 86.4° (Epoch: 27 August)

Date Brightness Start Highest point End Pass type
(mag) Time Alt. Az. Time Alt. Az. Time Alt. Az.
28 Aug 8.5 21:02:43 10° NW 21:05:48 16° WNW 21:08:54 10° WSW visible
29 Aug 7.9 20:28:12 10° NNW 20:32:36 28° W 20:36:58 10° SW visible
31 Aug 9.0 21:04:15 10° WNW 21:05:39 11° WNW 21:07:04 10° W visible
01 Sep 8.5 20:28:48 10° NNW 20:32:32 20° W 20:36:14 10° SW visible
04 Sep 8.8 20:29:44 10° NW 20:32:24 14° WNW 20:35:04 10° WSW visible
05 Sep 8.3 19:55:02 10° NNW 19:59:13 25° W 20:03:24 10° SW visible
